Weather History for KLHX - January, 2013

Change the Weather History Date:

Wednesday, January 16, 2013

  Actual Average Record
Temperature  
Mean Temperature 41 °F 31 °F  
Max Temperature 56 °F 45 °F - ()
Min Temperature 25 °F 17 °F - ()
Degree Days  
Heating Degree Days 24 34  
Month to date heating degree days 604 548  
Since 1 July heating degree days 2546 2751  
Cooling Degree Days 0 0  
Month to date cooling degree days 0 0  
Year to date cooling degree days 0 0  
Moisture  
Dew Point 13 °F    
Average Humidity 42    
Maximum Humidity 63    
Minimum Humidity 20    
Precipitation  
Precipitation 0.00 in 0.00 in - ()
Month to date precipitation T 0.14  
Year to date precipitation T 0.14  
Sea Level Pressure  
Sea Level Pressure 30.24 in    
Wind  
Wind Speed 10 mph (NW)    
Max Wind Speed 20 mph    
Max Gust Speed 24 mph    
Visibility 10 miles    
Events      
T = Trace of Precipitation, MM = Missing Value Source: NWS Daily Summary

Daily Weather History Graph

Daily Weather History Graph

Search for Another Location

Airport or City:

Trip Planner

Search our weather history database for the weather conditions in past years. The results will help you decide how hot, cold, wet, or windy it might be!

Date:

Astronomy

Jan. 16, 2013 Rise Set
Actual Time 7:08 AM MST 4:59 PM MST
Civil Twilight 6:39 AM MST 5:28 PM MST
Nautical Twilight 6:07 AM MST 6:00 PM MST
Astronomical Twilight 5:35 AM MST 6:32 PM MST
Moon 9:52 AM MST (1/16) 10:47 PM MST (1/16)
Length of Visible Light 10h 48m
Length of Day
9h 51m
Waxing Crescent, 29% of the Moon is Illuminated
Jan 16
Waxing Crescent
Jan 18
First Quarter
Jan 26
Full
Feb 3
Last Quarter
Feb 10
New

Hourly Weather History & Observations

Time (MST) Temp. Windchill Dew Point Humidity Pressure Visibility Wind Dir Wind Speed Gust Speed Precip Events Conditions
12:53 AM 28.0 °F 18.6 °F 3.0 °F 34% 30.18 in 10.0 mi West 10.4 mph - N/A   Overcast
1:53 AM 28.0 °F 16.5 °F 5.0 °F 38% 30.18 in 10.0 mi West 15.0 mph - N/A   Overcast
2:53 AM 28.9 °F 18.2 °F 6.1 °F 38% 30.16 in 10.0 mi West 13.8 mph - N/A   Overcast
3:53 AM 30.9 °F 20.2 °F 6.1 °F 35% 30.16 in 10.0 mi West 15.0 mph - N/A   Overcast
5:53 AM 26.1 °F 13.6 °F 6.1 °F 43% 30.19 in 10.0 mi West 16.1 mph - N/A   Clear
6:53 AM 26.1 °F 12.7 °F 8.1 °F 47% 30.22 in 10.0 mi West 18.4 mph - N/A   Clear
7:53 AM 28.9 °F 17.3 °F 10.0 °F 45% 30.23 in 10.0 mi West 16.1 mph - N/A   Clear
8:53 AM 35.1 °F 25.9 °F 10.9 °F 37% 30.23 in 10.0 mi West 13.8 mph - N/A   Clear
9:53 AM 41.0 °F 33.5 °F 12.9 °F 32% 30.23 in 10.0 mi WNW 13.8 mph - N/A   Clear
10:53 AM 46.0 °F 41.0 °F 14.0 °F 28% 30.22 in 10.0 mi WNW 10.4 mph - N/A   Clear
11:53 AM 52.0 °F - 18.0 °F 26% 30.17 in 10.0 mi North 12.7 mph 23.0 mph N/A   Clear
1:53 PM 55.0 °F - 19.0 °F 24% 30.14 in 10.0 mi NNE 8.1 mph - N/A   Clear
2:53 PM 55.9 °F - 17.1 °F 22% 30.14 in 10.0 mi NNE 8.1 mph 17.3 mph N/A   Clear
3:53 PM 55.0 °F - 16.0 °F 22% 30.17 in 10.0 mi NNE 5.8 mph - N/A   Clear
4:53 PM 51.1 °F - 16.0 °F 25% 30.20 in 10.0 mi Calm Calm - N/A   Clear
5:53 PM 48.0 °F - 16.0 °F 28% 30.26 in 10.0 mi Calm Calm - N/A   Clear
6:53 PM 42.1 °F 37.1 °F 16.0 °F 35% 30.31 in 10.0 mi NNE 8.1 mph - N/A   Clear
7:53 PM 34.0 °F 26.6 °F 16.0 °F 48% 30.36 in 10.0 mi NNE 9.2 mph - N/A   Clear
8:53 PM 34.0 °F 29.8 °F 18.0 °F 52% 30.37 in 10.0 mi East 4.6 mph - N/A   Clear
9:53 PM 33.1 °F - 18.0 °F 54% 30.36 in 10.0 mi Calm Calm - N/A   Clear
10:53 PM 27.0 °F 20.5 °F 15.1 °F 61% 30.38 in 10.0 mi NW 5.8 mph - N/A   Clear
11:53 PM 28.0 °F 18.6 °F 15.1 °F 58% 30.39 in 10.0 mi WNW 10.4 mph - N/A   Clear